Content
SEND FEEDBACK

Daily
Averages
Monthly
Summary
United States of America

SUCCESS, MISSOURI


Home > North America > United States > Missouri
Elevation: 1388 feet     Latitude: 37 30N     Longitude: 092 08W

WEATHER
 
SELECT A DAY
Number of Records: 166,262;   Date Range: 1/1/95 - 8/30/14
 
SHARE

PRINT THIS DATA

[ ← Previous Day ]
WEATHER ALMANAC - FEBRUARY 13, 2013
[ Next Day → ]
[ °C ]   °F
Weather ElementAverageHighLow
Temperature34.6 °F44.2 °F (3:55 pm)31.8 °F (7:55 am)
Dewpoint32.6 °F36.3 °F (9:55 am)31.3 °F (10:55 pm)
Humidity93.3 %100 % (1:11 am)64 % (4:55 pm)
Barometer29.92 in29.96 in (1:11 am)29.89 in (5:55 pm)
Wind Speed4 mph11.5 mph (12:04 pm)
Wind Gust17.3 mph (12:12 pm)
Weather ElementAverage
Visibility8.1 mi
Wind DirectionSSE (162.1 °)

Weather ElementTotal
Precipitation0.04 in
Heating Degree Days27 (Base 65)
Averaged from 62 records on February 13, 2013
WEATHER CONDITIONS BREAKOUT
WIND DIRECTION BREAKOUT
WEATHER BY HOUR - FEBRUARY 13, 2013
[ °C ]   °F
Local TimeTemperatureDewpointHumidityBarometerVisibilityWind DirectionWind SpeedGust SpeedPrecipitationEventsConditions
1:11 AM32.0 °F32.0 °F100 %29.96 in2.0 miNW (320°)3.5 mphSnowLight Snow
1:14 AM32.0 °F32.0 °F100 %29.96 in1.8 miNW (320°)3.5 mphSnowLight Snow
1:17 AM32.0 °F32.0 °F100 %29.96 in2.0 miNW (320°)3.5 mphSnowLight Snow
1:18 AM32.0 °F32.0 °F100 %29.96 in2.0 miCalmSnowLight Snow
1:22 AM32.0 °F32.0 °F100 %29.96 in2.0 miCalmSnowLight Snow
1:26 AM32.0 °F32.0 °F100 %29.96 in2.0 miCalmSnowLight Snow
1:37 AM32.0 °F32.0 °F100 %29.95 in2.0 miCalmSnowLight Snow
1:45 AM32.0 °F32.0 °F100 %29.95 in3.0 miCalmSnowLight Snow
1:47 AM32.0 °F32.0 °F100 %29.95 in3.0 miCalmSnowLight Snow
1:55 AM32.2 °F32.2 °F100 %29.95 in4.0 miCalm0.04 inSnowLight Snow
2:07 AM32.0 °F32.0 °F100 %29.94 in6.0 miCalmSnowLight Snow
2:12 AM32.0 °F32.0 °F100 %29.94 in7.0 miCalmRainLight Rain
2:16 AM32.0 °F32.0 °F100 %29.94 in7.0 miCalmRainLight Rain
2:50 AM32.0 °F32.0 °F100 %29.93 in7.0 miCalmRainLight Rain
2:52 AM32.0 °F32.0 °F100 %29.93 in7.0 miCalmRainLight Rain
2:55 AM32.4 °F32.4 °F100 %29.93 in7.0 miCalm0.00 inRainLight Rain
2:58 AM32.0 °F32.0 °F100 %29.93 in7.0 miCalmRainLight Rain
3:01 AM32.0 °F32.0 °F100 %29.93 in7.0 miCalmRainLight Rain
3:12 AM32.0 °F32.0 °F100 %29.92 in10.0 miWNW (290°)3.5 mphRainLight Rain
3:16 AM32.0 °F32.0 °F100 %29.92 in10.0 miWest (280°)3.5 mphOvercast
3:19 AM32.0 °F32.0 °F100 %29.92 in10.0 miCalmOvercast
3:31 AM32.0 °F32.0 °F100 %29.92 in10.0 miWest (270°)3.5 mphOvercast
3:46 AM32.0 °F32.0 °F100 %29.91 in10.0 miWest (280°)4.6 mphMostly Cloudy
3:51 AM32.0 °F32.0 °F100 %29.91 in10.0 miWest (280°)4.6 mphMostly Cloudy
3:55 AM32.4 °F32.4 °F100 %29.91 in10.0 miWest (280°)4.6 mph0.00 inMostly Cloudy
3:58 AM32.0 °F32.0 °F100 %29.91 in10.0 miWest (280°)5.8 mphMostly Cloudy
4:04 AM32.0 °F32.0 °F100 %29.91 in10.0 miWest (280°)4.6 mphMostly Cloudy
4:06 AM32.0 °F32.0 °F100 %29.91 in10.0 miWest (280°)5.8 mphSnowLight Snow
4:12 AM32.0 °F32.0 °F100 %29.91 in9.0 miWNW (290°)8.1 mphSnowLight Snow
4:20 AM32.0 °F32.0 °F100 %29.91 in9.0 miWNW (290°)5.8 mphSnowLight Snow
4:37 AM32.0 °F32.0 °F100 %29.90 in8.0 miWNW (290°)4.6 mphRainLight Rain
4:40 AM32.0 °F32.0 °F100 %29.90 in9.0 miWest (280°)3.5 mphRainLight Rain
4:41 AM32.0 °F32.0 °F100 %29.90 in9.0 miWest (280°)3.5 mphOvercast
4:55 AM32.5 °F32.5 °F100 %29.90 in9.0 miCalm0.00 inOvercast
5:09 AM32.0 °F32.0 °F100 %29.90 in8.0 miCalmOvercast
5:11 AM32.0 °F32.0 °F100 %29.90 in8.0 miCalmOvercast
5:55 AM32.4 °F32.4 °F100 %29.91 in8.0 miWest (260°)3.5 mphOvercast
5:58 AM32.0 °F32.0 °F100 %29.91 in8.0 miWest (260°)3.5 mphOvercast
6:08 AM32.0 °F32.0 °F100 %29.93 in9.0 miWest (280°)5.8 mphOvercast
6:27 AM32.0 °F32.0 °F100 %29.92 in10.0 miWest (270°)4.6 mphOvercast
6:55 AM32.2 °F32.2 °F100 %29.93 in9.0 miSSW (210°)3.5 mphOvercast
7:55 AM31.8 °F31.8 °F100 %29.94 in10.0 miSW (230°)3.5 mphPartly Cloudy
8:55 AM34.0 °F34.0 °F100 %29.94 in10.0 miSW (220°)5.8 mphClear
9:55 AM36.7 °F36.3 °F99 %29.93 in10.0 miVariable6.9 mphClear
10:55 AM39.9 °F36.3 °F87 %29.94 in10.0 miSW (230°)9.2 mphClear
11:55 AM43.0 °F36.1 °F77 %29.93 in10.0 miSW (220°)10.4 mphScattered Clouds
12:02 PM41.0 °F35.6 °F81 %29.93 in10.0 miWSW (250°)9.2 mphMostly Cloudy
12:04 PM41.0 °F35.6 °F81 %29.93 in10.0 miWSW (240°)11.5 mphScattered Clouds
12:12 PM42.8 °F35.6 °F76 %29.92 in10.0 miSW (230°)11.5 mph17.3 mphMostly Cloudy
12:55 PM40.5 °F34.0 °F78 %29.93 in10.0 miWest (260°)11.5 mph17.3 mphMostly Cloudy
1:01 PM41.0 °F33.8 °F76 %29.93 in10.0 miSW (230°)10.4 mph17.3 mphScattered Clouds
1:55 PM41.4 °F33.3 °F73 %29.91 in10.0 miSW (220°)11.5 mphPartly Cloudy
2:55 PM42.4 °F32.7 °F68 %29.91 in10.0 miVariable6.9 mphClear
3:55 PM44.2 °F33.3 °F65 %29.90 in10.0 miWest (260°)8.1 mphClear
4:55 PM43.7 °F32.2 °F64 %29.90 in10.0 miWest (260°)8.1 mphClear
5:55 PM41.2 °F32.7 °F72 %29.89 in10.0 miCalmPartly Cloudy
6:55 PM38.3 °F33.1 °F81 %29.89 in10.0 miCalmClear
7:55 PM37.4 °F33.1 °F84 %29.91 in10.0 miSSW (210°)3.5 mphClear
8:55 PM36.0 °F31.8 °F85 %29.90 in10.0 miSSW (210°)4.6 mphClear
9:55 PM37.0 °F31.5 °F80 %29.90 in10.0 miSSW (200°)5.8 mphClear
10:55 PM37.0 °F31.3 °F80 %29.89 in10.0 miSSW (200°)5.8 mphClear
11:55 PM37.8 °F31.3 °F77 %29.89 in10.0 miSouth (190°)4.6 mphClear
Hourly data recorded from KTBN, located miles away from Success, Missouri







STORIES FROM OUR PARTNERS